ラーゲルクヴィスト-カルゼンティ彗星

308P/Lagerkvist-Carsenty (2015)

English version
Home page
Updated on June 11, 2016

---------------------------------------------------------------------

・ プロフィール

符号 308P/2014 O2
検出日 2014年7月29日
検出光度 20.0等
検出者 Erwin Schwab and Pablo Ruiz (European Space Agency's Optical Ground Station, Tenerife)

・ 写真集

・ 軌道要素

Epoch 2015 May 18.0 TT = JDT 2457160.5
T 2015 May 7.36763 TT                                   MPCW
q   4.2257281            (2000.0)            P               Q
n   0.05763693     Peri.  334.05998     +0.79523548     -0.60159623
a   6.6374636      Node    63.13042     +0.56993916     +0.69933313
e   0.3633520      Incl.    4.84761     +0.20680882     +0.38602481
P  17.1
From 270 observations 1997 Oct. 5-2015 Nov. 21, mean residual 0".6.

・ 光度変化

        m1 = 10.0 + 5 logΔ + 10.0 log r

---------------------------------------------------------------------

軌道要素はM.P.E.C. 2015-W63に掲載されたものです。
光度グラフはComet for Windowsで作成したものです。

---------------------------------------------------------------------

Copyright(C) Seiichi Yoshida (comet@aerith.net). All rights reserved.